Weather in Albuquerque

United States     35˚05′03″N   106˚38′55″W
temp.,
°C
wind,
m/s
gust,
m/s
humid.,
%
clouds,
%
prec.,
mm/h
press.,
hPa
HPBL,
m
3 december, thu
thu323:00−2˚ssw343927 0.0 1032118
02:00−3˚s33374 0.0 1032100
05:00−5˚sse12412 0.0 103286
08:00−3˚wnw11360 0.0 1033114
11:00+1˚wsw11300 0.0 1029533
14:00+3˚nnw23310 0.0 1024854
17:00+1˚sse01410 0.0 102659
20:00ssw01450 0.0 102743
4 december, fri
fri423:00−1˚n12470 0.0 102929
02:00−1˚nne34360 0.0 102860
05:00−2˚n35380 0.0 102898
08:00n47340 0.0 1028209
11:00+5˚n57240 0.0 1024538
14:00+8˚n56220 0.0 1021510
17:00+6˚n45310 0.0 102289
20:00+4˚n45330 0.0 102481
5 december, sat
sat523:00+3˚nnw45370 0.0 102662
02:00+2˚n45400 0.0 102745
05:00+2˚n34430 0.0 102737
08:00+3˚n33430 0.0 102949
11:00+8˚n33280 0.0 1027294
14:00+11˚nnw22240 0.0 1024481
17:00+7˚nnw00350 0.0 102522
20:00+5˚sse11390 0.0 102622
6 december, sun
sun623:00+3˚ene00430 0.0 102622
02:00+2˚nne12470 0.0 102522
05:00+2˚n23420 0.0 102523
08:00+3˚n23380 0.0 102523
11:00+9˚n11240 0.0 1022405
14:00+11˚nw01220 0.0 1019634
17:00+7˚se11310 0.0 102022
20:00+5˚sw01370 0.0 102023
7 december, mon
mon723:00+4˚n223811 0.0 102124
02:00+3˚nne33380 0.0 102126
05:00+2˚n34330 0.0 102226
08:00+3˚n33370 0.0 102435
11:00+10˚e26210 0.0 1023775
14:00+13˚se46180 0.0 10211302
17:00+10˚e69240 0.0 1024170
20:00+6˚e611290 0.0 1028208